EW3204 Weather Reports


Display with metric or nautical units.
time (UTC)temp
F
wind
direction
speed
MPH
gust
MPH
rain 1hr
in
rain 24hr
in
rain mn
in
humidity
%
barometer
mb
20260904091514 77 108 2.0 0.0 0.00 0.00 0.00 18 1005.2
20260904090011 78 73 4.0 0.0 0.00 0.00 0.00 18 1005.2
20260904084513 76 179 2.0 0.0 0.00 0.00 0.00 18 1005.4
20260904083011 75 115 2.0 0.0 0.00 0.00 0.00 17 1005.4
20260904081510 76 208 3.0 0.0 0.00 0.00 0.00 20 1005.6
20260904080010 76 208 4.0 0.0 0.00 0.00 0.00 21 1005.5
20260904073101 76 271 3.0 0.0 0.00 0.00 0.00 23 1005.8
20260904071558 76 204 3.0 0.0 0.00 0.00 0.00 23 1005.7
20260904070100 77 210 3.0 0.0 0.00 0.00 0.00 23 1005.7
20260904064550 78 202 2.0 0.0 0.00 0.00 0.00 23 1005.7
20260904063046 78 202 2.0 0.0 0.00 0.00 0.00 23 1005.6
20260904061543 79 202 3.0 0.0 0.00 0.00 0.00 23 1005.6
20260904060037 79 202 3.0 0.0 0.00 0.00 0.00 23 1005.6
20260904054533 78 239 3.0 0.0 0.00 0.00 0.00 25 1005.6
20260904053028 78 226 2.0 0.0 0.00 0.00 0.00 25 1005.7
20260904051523 80 226 0.0 0.0 0.00 0.00 0.00 23 1005.7
20260904050019 80 226 0.0 0.0 0.00 0.00 0.00 24 1005.7
20260904044518 81 162 2.0 0.0 0.00 0.00 0.00 24 1005.8
20260904043013 80 167 4.0 0.0 0.00 0.00 0.00 25 1005.6
20260904041509 81 241 1.0 0.0 0.00 0.00 0.00 24 1005.5
20260904040001 82 312 5.0 0.0 0.00 0.00 0.00 23 1005.4
20260904034557 82 307 7.0 0.0 0.00 0.00 0.00 24 1005.2
20260904033054 83 329 7.0 0.0 0.00 0.00 0.00 25 1005.2
20260904031550 83 315 8.0 0.0 0.00 0.00 0.00 25 1005.0
20260904030045 84 288 8.0 0.0 0.00 0.00 0.00 26 1004.8
20260904024547 84 276 7.0 0.0 0.00 0.00 0.00 27 1004.7
20260904023038 84 279 9.0 0.0 0.00 0.00 0.00 27 1004.6
20260904021535 85 301 10.0 0.0 0.00 0.00 0.00 28 1004.6
20260904020028 86 296 10.0 0.0 0.00 0.00 0.00 26 1004.5
20260904014524 87 279 13.0 0.0 0.00 0.00 0.00 25 1004.3
20260904013019 88 272 13.0 0.0 0.00 0.00 0.00 24 1004.3
20260904011518 88 296 17.0 0.0 0.00 0.00 0.00 23 1004.2
20260904010011 90 308 18.0 0.0 0.00 0.00 0.00 22 1004.2
20260904004506 91 235 14.0 0.0 0.00 0.00 0.00 21 1004.2
20260904003001 92 283 13.0 0.0 0.00 0.00 0.00 19 1004.2
20260904001558 94 258 10.0 0.0 0.00 0.00 0.00 17 1004.1
20260904000104 94 271 11.0 0.0 0.00 0.00 0.00 17 1004.0
20260903234548 94 278 15.0 0.0 0.00 0.00 0.00 17 1004.1
20260903233050 95 307 12.0 0.0 0.00 0.00 0.00 17 1004.1
20260903231542 95 275 13.0 0.0 0.00 0.00 0.00 16 1004.2
20260903230037 96 257 12.0 0.0 0.00 0.00 0.00 14 1004.4
20260903224549 96 288 11.0 0.0 0.00 0.00 0.00 12 1004.5
20260903223028 96 279 12.0 0.0 0.00 0.00 0.00 11 1004.6
20260903221524 97 275 11.0 0.0 0.00 0.00 0.00 10 1005.0
20260903220020 97 286 10.0 0.0 0.00 0.00 0.00 11 1005.1
20260903214526 97 316 7.0 0.0 0.00 0.00 0.00 10 1005.1
20260903213008 97 294 8.0 0.0 0.00 0.00 0.00 10 1005.4
20260903211505 97 306 7.0 0.0 0.00 0.00 0.00 10 1005.5
20260903210126 96 344 10.0 0.0 0.00 0.00 0.00 10 1005.7
20260903204559 95 273 5.0 0.0 0.00 0.00 0.00 6 1005.9
20260903203107 95 103 5.0 0.0 0.00 0.00 0.00 6 1006.1
20260903201548 94 100 4.0 0.0 0.00 0.00 0.00 6 1006.2
20260903200051 94 258 2.0 0.0 0.00 0.00 0.00 6 1006.5
20260903194538 92 108 6.0 0.0 0.00 0.00 0.00 6 1006.7
20260903193034 93 93 4.0 0.0 0.00 0.00 0.00 7 1006.9
20260903191535 92 94 4.0 0.0 0.00 0.00 0.00 7 1007.1
20260903190027 92 67 3.0 0.0 0.00 0.00 0.00 7 1007.5
20260903184520 91 121 3.0 0.0 0.00 0.00 0.00 7 1007.8
20260903183016 91 73 5.0 0.0 0.00 0.00 0.00 7 1008.0
20260903181512 90 81 4.0 0.0 0.00 0.00 0.00 7 1008.3
20260903180008 90 21 6.0 0.0 0.00 0.00 0.00 8 1008.3
20260903174503 89 33 5.0 0.0 0.00 0.00 0.00 8 1008.4
20260903173059 89 94 5.0 0.0 0.00 0.00 0.00 8 1008.3
20260903171639 88 111 3.0 0.0 0.00 0.00 0.00 8 1008.3
20260903170050 88 117 3.0 0.0 0.00 0.00 0.00 8 1008.4
20260903164548 86 113 4.0 0.0 0.00 0.00 0.00 9 1008.4
20260903163042 86 114 4.0 0.0 0.00 0.00 0.00 9 1008.3
20260903161537 85 119 4.0 0.0 0.00 0.00 0.00 10 1008.4
20260903160032 84 106 4.0 0.0 0.00 0.00 0.00 11 1008.5
20260903154527 83 110 3.0 0.0 0.00 0.00 0.00 11 1008.4
20260903153023 82 108 4.0 0.0 0.00 0.00 0.00 11 1008.5
20260903151519 81 101 4.0 0.0 0.00 0.00 0.00 11 1008.4
20260903150018 80 152 3.0 0.0 0.00 0.00 0.00 11 1008.4
20260903144510 79 116 2.0 0.0 0.00 0.00 0.00 11 1008.4
20260903143005 77 116 1.0 0.0 0.00 0.00 0.00 13 1008.4
20260903141501 75 205 4.0 0.0 0.00 0.00 0.00 15 1008.2
20260903140058 74 185 3.0 0.0 0.00 0.00 0.00 14 1008.2
20260903134558 73 144 3.0 0.0 0.00 0.00 0.00 12 1008.1
20260903133047 72 223 3.0 0.0 0.00 0.00 0.00 14 1008.1
20260903133013 72 223 3.0 0.0 0.00 0.00 0.00 14 1008.1
20260903131545 71 187 2.0 0.0 0.00 0.00 0.00 12 1008.1
20260903130139 72 190 2.0 0.0 0.00 0.00 0.00 10 1008.2
20260903124541 72 188 3.0 0.0 0.00 0.00 0.00 11 1008.0
20260903123034 70 269 1.0 0.0 0.00 0.00 0.00 12 1008.0
20260903121525 70 225 1.0 0.0 0.00 0.00 0.00 11 1007.8
20260903120020 70 221 1.0 0.0 0.00 0.00 0.00 9 1007.8
20260903114516 72 105 3.0 0.0 0.00 0.00 0.00 10 1007.7
20260903113012 73 174 3.0 0.0 0.00 0.00 0.00 7 1007.7
20260903111507 76 175 4.0 0.0 0.00 0.00 0.00 6 1007.6
20260903110003 74 213 4.0 0.0 0.00 0.00 0.00 6 1007.6
20260903104604 75 167 4.0 0.0 0.00 0.00 0.00 7 1007.6
20260903103059 76 181 4.0 0.0 0.00 0.00 0.00 6 1007.7
20260903101601 75 167 3.0 0.0 0.00 0.00 0.00 6 1007.7
20260903100046 76 217 1.0 0.0 0.00 0.00 0.00 6 1007.7
20260903094538 76 221 2.0 0.0 0.00 0.00 0.00 6 1007.8
20260903093034 77 236 2.0 0.0 0.00 0.00 0.00 6 1007.7